SCP
0 0 -0 -0 -0 -0 -0 -0 -0 -0 -0 0 0 0 -0 0 0 0 0 0 0 -0 -0 -0 0 0 0 0 0 0 0 0 0 0 0 0 0 0 0 0 0 0 0 0 0
0 -0 -0 0 -0 -0 0 0 -0 -0 -0 -0 0 -0 0 0 0 0 0 -0 -0 -0 -0 0 -0 0 0 0 0 0 0 0 0 0 0 0 0 0 0 0 0 0 0 0 0
0 0 -0 0 -0 0 -0 -0 -0 -0 -0 -0 0 0 0 0 0 0 0 -0 -0 -0 -0 -0 -0 0 0 0 0 0 0 0 0 0 0 0 -0 0 0 0 0 0 0 0 0
0 0 0 0 -0 0 -0 -0 -0 -0 -0 -0 0 0 0 0 0 0 -0 -0 -0 0 0 0 0 0 0 0 0 0 0 0 0 0 0 0 0 0 0 0 0 0 0 0 0
0 -0 0 -0 0 0 -0 -0 -0 -0 -0 -0 -0 0 0 0 0 0 0 0 0 0 0 -0 -0 -0 -0 0 0 0 0 0 0 0 0 0 0 0 0 0 0 0 0 0 0
-0 -0 -0 -0 0 0 0 -0 -0 -0 -0 -0 -0 0 0 0 0 0 0 0 0 0 0 0 0 -0 0 0 0 0 0 0 0 -0 0 0 0 0 0 0 0 0 0 0 0
-0 0 -0 -0 0 0 -0 -0 -0 -0 -0 -0 -0 0 0 0 0 0 0 0 0 0 0 -0 -0 0 -0 -0 -0 0 0 -0 -0 0 0 0 0 0 0 0 0 0 0 0 0
0 0 -0 -0 0 -0 -0 -0 -0 -0 -0 -0 -0 0 0 0 0 0 0 0 0 0 0 0 0 -0 -0 0 -0 0 0 0 -0 0 0 0 0 0 0 0 0 0 0 0 0
0 0 -0 -0 -0 -0 0 -0 -0 -0 -0 -0 -0 0 0 0 0 0 0 0 0 0 0 0 0 0 -0 -0 0 0 0 0 0 0 0 0 0 0 0 0 0 0 0 0 0
0 -0 -0 -0 -0 -0 0 0 0 -0 -0 0 0 0 0 0 0 0 0 0 0 0 0 -0 0 -0 -0 -0 -0 -0 -0 0 0 0 -0 -0 -0 0 0 0 0 0 0 0 0
-0 -0 -0 -0 -0 -0 -0 -0 -0 0 0 0 -0 -0 0 0 0 0 0 0 0 0 0 0 -0 -0 -0 -0 -0 -0 -0 -0 -0 0 -0 0 0 0 0 0 0 0 0 0 0
0 -0 -0 -0 -0 0 -0 0 0 0 0 0 0 0 0 0 0 0 0 0 0 0 0 0 -0 -0 -0 0 -0 -0 -0 -0 -0 0 -0 0 -0 -0 -0 0 0 0 0 0 0
0 -0 -0 -0 -0 0 0 0 -0 0 0 0 0 0 0 0 0 0 0 0 0 0 -0 -0 0 -0 -0 -0 -0 -0 0 0 0 0 -0 0 0 0 0 -0 -0 -0 -0 -0 -0
0 0 0 0 0 0 0 0 -0 0 0 0 -0 0 0 0 0 0 0 0 0 0 0 0 0 -0 0 -0 -0 -0 -0 0 -0 -0 -0 -0 -0 0 0 0 -0 -0 -0 -0 -0
0 0 0 0 0 0 0 0 0 0 0 0 0 -0 0 0 0 -0 0 0 0 0 0 0 -0 0 -0 0 -0 -0 -0 0 -0 0 -0 -0 -0 0 -0 0 0 -0 -0 0 0
0 0 0 0 0 0 0 0 0 0 0 0 0 0 0 0 0 0 0 0 0 0 0 0 0 0 0 0 0 0 0 0 0 0 -0 0 -0 0 -0 -0 -0 0 0 0 0
0 0 0 0 0 0 0 0 0 0 0 0 0 0 0 0 0 0 0 0 0 0 0 0 0 0 -0 0 0 0 0 0 0 0 0 0 0 0 0 -0 -0 0 0 0 0
0 0 0 0 0 0 0 0 0 0 0 0 0 0 0 0 0 0 0 0 0 0 0 0 0 0 0 -0 0 0 0 0 0 0 0 0 0 0 0 0 0 0 0 0 0
0 0 0 0 0 0 0 0 0 0 0 0 0 0 0 0 0 0 0 0 0 0 0 0 0 0 0 0 0 0 0 0 0 0 0 0 0 0 0 0 0 0 0 0 0
0 0 0 0 0 0 0 0 0 0 0 0 0 0 0 0 0 0 0 0 0 0 0 0 0 0 0 0 0 0 0 0 0 0 0 0 0 0 0 0 0 0 0 0 0
0 0 0 0 0 0 0 0 0 0 0 0 0 0 0 0 0 0 0 0 0 0 0 0 0 0 0 0 0 0 0 0 0 0 0 0 0 0 0 0 0 0 0 0 0
0 0 0 0 0 0 0 0 0 0 0 0 0 0 0 0 0 0 0 0 0 0 0 0 0 0 0 0 0 0 0 0 0 0 0 0 0 0 0 0 0 0 0 0 0
0 0 0 0 0 0 0 0 0 0 0 0 0 0 0 0 0 0 0 0 0 0 0 0 0 0 0 0 0 0 0 0 0 0 0 0 0 0 0 0 0 0 0 0 0
0 0 0 0 0 0 0 0 0 0 0 0 0 0 0 0 0 0 0 0 0 0 0 0 0 0 0 0 0 0 0 0 0 0 0 0 0 0 0 0 0 0 0 0 0
0 0 0 0 0 0 0 0 0 0 0 0 0 0 0 0 0 0 0 0 0 0 0 0 0 0 0 0 0 0 0 0 0 0 0 0 0 0 0 0 0 0 0 0 0
0 0 0 0 0 0 0 0 0 0 0 0 0 0 0 0 0 0 0 0 0 0 0 0 0 0 0 0 0 0 0 0 0 0 0 0 0 0 0 0 0 0 0 0 0
0 0 0 0 0 0 0 0 0 0 0 0 0 0 0 0 0 0 0 0 0 0 0 0 0 0 0 0 0 0 0 0 0 0 0 0 0 0 0 0 0 0 0 0 0
Wind_Speed_500mb
34 38 40 40 39 37 32 24 17 12 16 28 22 16 34 43 48 37 69 48 47 37 22 30 17 18 22 33 22 8 7 9 11 13 18 22 31 47 53 73 76 48 45 31 45
30 31 32 39 42 42 41 36 26 15 12 27 30 12 8 14 50 68 60 42 35 31 25 18 35 38 26 22 19 18 9 9 27 31 29 46 33 32 28 45 54 53 49 45 63
25 26 25 25 28 32 33 37 47 41 20 19 38 28 5 3 27 57 56 47 38 27 34 14 22 37 42 39 18 20 11 47 54 61 59 56 75 26 10 28 39 39 38 42 59
20 19 20 20 17 22 25 30 40 53 39 13 22 44 40 9 12 47 50 42 37 23 37 28 21 22 27 29 26 21 48 26 34 42 36 44 41 61 55 33 31 33 35 49 68
17 16 15 16 14 14 17 22 31 35 47 45 24 26 22 55 32 40 39 35 36 18 25 37 57 48 30 31 63 35 43 55 66 70 66 67 60 41 52 39 35 46 49 50 50
14 14 15 13 12 16 18 18 23 29 36 31 51 43 55 52 39 34 31 32 25 34 39 40 42 52 38 34 27 37 52 40 56 57 39 51 35 14 29 32 28 34 48 57 64
12 12 12 13 13 18 18 17 21 22 13 42 43 51 88 43 40 26 26 35 40 38 36 33 19 36 45 50 51 44 36 44 32 4 11 3 44 24 16 15 26 33 37 47 54
11 10 13 17 13 6 17 36 34 34 22 7 16 51 45 50 39 18 28 39 42 46 56 52 52 57 26 48 17 6 8 10 30 7 13 3 12 16 13 21 28 30 33 40 45
8 10 14 23 27 27 21 8 6 20 40 24 20 19 17 43 57 37 24 32 40 48 50 47 54 29 13 9 11 15 14 18 12 24 8 9 17 7 11 19 25 27 30 34 37
8 14 30 39 26 25 26 38 31 3 5 12 25 14 32 40 54 28 22 17 19 27 23 33 24 19 24 11 8 9 13 20 19 23 37 37 27 16 14 19 20 20 23 28 32
9 15 24 18 3 9 11 6 6 23 66 34 26 27 28 24 49 37 21 22 26 32 14 30 26 24 22 18 15 23 28 27 14 4 21 26 24 15 11 15 15 15 20 25 30
9 10 17 22 20 11 7 8 16 26 33 35 38 23 38 34 30 32 42 21 27 14 6 16 27 17 8 16 25 26 30 22 18 13 13 19 19 13 11 10 8 8 11 14 20
7 7 9 12 13 13 21 26 21 17 13 18 28 24 17 30 26 46 22 18 29 38 40 28 9 13 5 18 19 21 13 8 13 16 17 14 13 17 12 10 7 4 4 9 19
5 13 8 11 14 26 19 10 8 8 6 20 17 17 28 5 15 35 27 10 12 10 11 18 12 13 14 12 11 10 7 15 19 5 5 5 5 16 19 17 17 14 10 2 12
3 12 13 11 9 30 16 7 5 7 2 9 8 8 21 17 3 23 25 34 17 12 4 8 12 15 20 10 12 9 6 9 6 8 4 3 3 9 13 22 24 25 16 9 3
6 6 10 14 18 16 17 10 9 10 5 2 7 12 5 20 11 12 12 19 12 18 36 11 5 10 7 6 9 16 9 7 5 2 3 3 4 9 13 19 22 32 25 18 10
7 9 13 14 12 19 19 11 9 6 5 4 3 8 7 11 9 17 11 12 4 7 5 4 8 3 8 4 8 3 4 1 3 3 2 4 5 8 12 13 18 36 31 23 14
14 10 12 17 19 23 20 7 5 2 10 2 4 5 5 7 7 9 5 6 9 4 7 4 5 11 15 7 3 6 1 3 5 3 3 2 9 2 3 12 14 22 24 22 21
19 15 13 17 21 20 8 5 12 13 12 20 6 4 2 1 1 2 7 3 1 4 3 8 5 1 5 11 5 4 2 4 12 2 4 0 7 10 10 17 19 23 26 29 25
23 19 20 21 19 18 8 11 7 8 18 6 12 4 11 8 6 3 5 4 6 2 2 8 8 1 3 3 19 5 13 2 2 2 6 3 9 5 19 28 27 32 37 35 30
25 12 20 26 22 13 7 10 8 12 9 10 10 10 7 11 7 6 8 3 7 7 3 8 3 6 3 1 3 4 4 9 6 4 4 6 5 7 17 19 26 38 38 34 32
21 9 21 31 11 2 6 11 13 15 12 5 7 6 11 16 9 9 13 3 14 12 8 4 5 5 3 4 2 2 2 3 4 6 2 3 12 8 9 12 20 26 27 28 31
14 16 20 38 8 5 1 2 8 14 14 13 8 3 4 12 7 6 7 2 15 12 10 15 3 4 4 4 2 8 10 7 7 2 12 7 8 4 9 15 22 26 23 26 28
22 4 13 30 12 19 12 9 9 11 16 11 10 12 9 5 6 12 9 10 13 7 8 6 3 6 6 5 7 8 12 14 7 8 12 18 21 17 17 21 27 29 29 35 44
32 17 22 8 13 15 27 21 14 15 8 19 3 14 15 10 7 10 9 11 8 16 6 6 9 4 3 3 3 7 14 28 24 16 18 11 20 36 17 22 33 32 36 36 36
29 17 19 14 17 27 23 21 28 12 23 14 13 26 19 15 17 23 21 17 11 20 13 6 6 4 4 2 3 15 28 34 37 37 36 35 46 60 67 45 40 33 26 30 36
65 46 27 20 16 13 14 22 31 35 23 15 39 18 21 12 12 18 15 25 31 24 15 13 15 9 6 5 6 14 21 39 25 20 38 26 28 17 16 16 23 29 26 34 40
Wind_Direction_500mb
80 75 71 72 75 72 68 65 58 52 51 34 37 126 73 61 56 54 39 7 360 4 12 28 41 81 91 79 71 98 86 92 122 118 129 100 88 70 69 73 68 73 70 55 55
79 78 77 74 77 73 64 57 47 33 52 42 49 130 163 60 45 45 28 22 19 20 19 52 61 66 60 45 43 45 61 33 90 93 89 70 82 80 67 49 54 55 55 58 60
81 79 79 76 76 74 66 62 55 49 62 74 57 50 109 234 29 12 21 20 20 27 24 86 77 70 58 53 24 37 69 96 95 101 93 82 59 58 78 49 39 35 34 45 56
85 80 77 67 79 74 59 56 52 49 53 84 62 56 62 100 51 7 15 21 19 59 59 73 67 70 69 61 60 104 59 64 88 90 82 71 83 64 61 64 63 55 53 55 57
87 81 74 69 75 62 59 78 58 49 55 63 66 67 70 64 25 14 19 29 47 113 54 76 77 77 81 96 66 70 87 73 89 88 86 86 73 69 53 56 51 67 71 61 59
86 82 79 79 82 49 85 90 67 64 59 69 67 74 62 61 16 14 26 49 68 62 68 81 92 97 83 82 60 105 93 83 80 79 77 76 54 67 41 61 65 61 64 64 62
87 76 82 105 105 72 82 102 81 63 81 71 59 57 54 37 29 20 44 53 62 71 87 91 97 107 95 100 121 106 86 67 23 55 145 326 40 53 60 73 69 64 60 58 58
102 75 86 126 119 97 114 107 66 61 55 160 57 56 67 37 40 77 74 65 82 81 86 105 101 92 84 125 149 157 101 87 30 24 28 209 80 67 67 72 69 68 63 60 56
117 92 99 122 101 84 78 222 232 74 62 55 57 67 55 32 42 59 89 76 87 91 104 103 79 74 95 138 117 34 90 77 82 34 74 81 127 119 81 75 67 62 61 59 56
150 120 124 125 105 83 64 63 66 160 150 28 43 59 30 28 34 56 75 79 103 108 81 53 52 64 35 17 83 103 103 66 69 47 88 97 117 125 88 81 74 65 62 60 53
175 165 167 178 174 2 352 342 34 58 66 66 54 73 47 53 40 48 83 86 69 64 49 34 63 47 21 30 82 100 98 99 101 107 69 105 118 119 111 96 88 71 63 59 53
207 187 205 225 250 283 317 131 122 123 79 62 59 62 46 45 51 52 70 70 51 61 55 81 54 8 19 66 81 95 104 98 85 88 104 138 128 145 157 131 125 101 74 53 46
208 200 193 192 197 162 135 109 113 109 83 33 29 30 24 46 45 23 45 69 66 62 63 79 15 349 70 58 71 53 84 131 125 110 86 151 164 184 180 169 171 168 118 53 37
230 195 169 152 162 168 158 120 103 133 85 360 357 20 4 72 53 27 39 70 54 89 61 63 11 52 76 64 355 74 10 117 124 171 138 281 156 209 191 198 211 209 204 128 34
218 207 198 191 206 173 191 174 116 135 49 10 346 11 32 76 64 25 43 61 72 43 245 62 23 34 62 14 336 104 132 114 69 83 181 64 249 121 196 222 215 215 215 206 33
189 177 194 182 174 189 168 151 126 46 245 42 320 348 23 31 38 17 56 75 99 68 61 83 29 24 24 3 51 128 124 96 94 110 234 151 295 175 188 224 212 211 216 217 241
217 211 211 203 201 179 164 139 39 135 14 227 7 31 74 16 39 26 37 35 32 130 64 113 34 19 16 111 86 190 181 219 198 222 23 116 257 292 200 210 221 205 209 215 238
224 222 212 218 189 170 159 75 126 9 209 120 135 79 84 359 35 22 93 85 59 347 114 143 145 6 350 23 43 60 184 321 303 279 349 86 235 149 196 217 231 209 207 217 235
219 221 213 188 179 173 139 84 203 189 149 154 113 143 126 112 155 101 41 109 51 17 7 137 131 105 53 34 303 135 87 100 106 126 266 283 257 219 222 219 208 203 212 226 234
210 219 220 200 187 184 101 223 168 151 130 169 169 197 174 196 177 189 176 181 159 168 154 169 119 184 115 205 47 4 130 135 75 315 282 227 265 245 209 219 208 217 224 233 237
198 220 213 205 189 187 174 187 157 173 151 166 169 143 181 176 193 189 156 173 210 130 116 147 290 143 222 183 154 175 162 68 100 333 278 302 254 184 198 199 203 219 228 235 240
191 215 205 188 149 49 170 163 147 163 175 149 122 108 163 164 149 186 201 256 169 163 155 130 112 135 96 118 316 287 252 272 209 185 65 343 272 186 193 186 211 230 239 244 250
199 213 202 181 155 185 155 56 166 154 175 167 154 135 139 164 144 177 171 170 163 169 169 183 157 130 181 171 168 222 185 137 102 75 201 197 255 188 217 226 237 240 240 246 257
187 159 180 199 192 148 151 193 193 205 153 162 133 121 120 128 38 159 154 178 189 181 137 146 129 211 245 84 99 189 196 190 171 183 176 229 271 233 217 234 230 236 251 264 274
205 216 195 172 217 185 176 152 148 180 220 173 151 221 165 132 123 173 162 149 189 176 135 185 213 186 239 237 272 244 215 193 206 199 213 281 234 262 274 249 257 262 270 268 268
202 180 191 160 170 157 170 204 174 163 159 209 218 187 183 159 187 185 151 184 180 172 169 169 177 170 266 9 264 275 234 231 227 238 252 259 270 271 275 270 258 256 261 269 268
208 212 202 163 159 157 193 184 200 153 208 189 200 141 189 196 122 104 134 139 147 154 159 163 145 159 245 4 310 272 238 202 206 221 220 219 231 243 244 245 253 265 268 278 277
Wind_Speed_850mb
34 38 40 40 39 37 32 24 17 12 16 28 22 16 34 43 48 37 69 48 47 37 22 30 17 18 22 33 22 8 7 9 11 13 18 22 31 47 53 73 76 48 45 31 45
30 31 32 39 42 42 41 36 26 15 12 27 30 12 8 14 50 68 60 42 35 31 25 18 35 38 26 22 19 18 9 9 27 31 29 46 33 32 28 45 54 53 49 45 63
25 26 25 25 28 32 33 37 47 41 20 19 38 28 5 3 27 57 56 47 38 27 34 14 22 37 42 39 18 20 11 47 54 61 59 56 75 26 10 28 39 39 38 42 59
20 19 20 20 17 22 25 30 40 53 39 13 22 44 40 9 12 47 50 42 37 23 37 28 21 22 27 29 26 21 48 26 34 42 36 44 41 61 55 33 31 33 35 49 68
17 16 15 16 14 14 17 22 31 35 47 45 24 26 22 55 32 40 39 35 36 18 25 37 57 48 30 31 63 35 43 55 66 70 66 67 60 41 52 39 35 46 49 50 50
14 14 15 13 12 16 18 18 23 29 36 31 51 43 55 52 39 34 31 32 25 34 39 40 42 52 38 34 27 37 52 40 56 57 39 51 35 14 29 32 28 34 48 57 64
12 12 12 13 13 18 18 17 21 22 13 42 43 51 88 43 40 26 26 35 40 38 36 33 19 36 45 50 51 44 36 44 32 4 11 3 44 24 16 15 26 33 37 47 54
11 10 13 17 13 6 17 36 34 34 22 7 16 51 45 50 39 18 28 39 42 46 56 52 52 57 26 48 17 6 8 10 30 7 13 3 12 16 13 21 28 30 33 40 45
8 10 14 23 27 27 21 8 6 20 40 24 20 19 17 43 57 37 24 32 40 48 50 47 54 29 13 9 11 15 14 18 12 24 8 9 17 7 11 19 25 27 30 34 37
8 14 30 39 26 25 26 38 31 3 5 12 25 14 32 40 54 28 22 17 19 27 23 33 24 19 24 11 8 9 13 20 19 23 37 37 27 16 14 19 20 20 23 28 32
9 15 24 18 3 9 11 6 6 23 66 34 26 27 28 24 49 37 21 22 26 32 14 30 26 24 22 18 15 23 28 27 14 4 21 26 24 15 11 15 15 15 20 25 30
9 10 17 22 20 11 7 8 16 26 33 35 38 23 38 34 30 32 42 21 27 14 6 16 27 17 8 16 25 26 30 22 18 13 13 19 19 13 11 10 8 8 11 14 20
7 7 9 12 13 13 21 26 21 17 13 18 28 24 17 30 26 46 22 18 29 38 40 28 9 13 5 18 19 21 13 8 13 16 17 14 13 17 12 10 7 4 4 9 19
5 13 8 11 14 26 19 10 8 8 6 20 17 17 28 5 15 35 27 10 12 10 11 18 12 13 14 12 11 10 7 15 19 5 5 5 5 16 19 17 17 14 10 2 12
3 12 13 11 9 30 16 7 5 7 2 9 8 8 21 17 3 23 25 34 17 12 4 8 12 15 20 10 12 9 6 9 6 8 4 3 3 9 13 22 24 25 16 9 3
6 6 10 14 18 16 17 10 9 10 5 2 7 12 5 20 11 12 12 19 12 18 36 11 5 10 7 6 9 16 9 7 5 2 3 3 4 9 13 19 22 32 25 18 10
7 9 13 14 12 19 19 11 9 6 5 4 3 8 7 11 9 17 11 12 4 7 5 4 8 3 8 4 8 3 4 1 3 3 2 4 5 8 12 13 18 36 31 23 14
14 10 12 17 19 23 20 7 5 2 10 2 4 5 5 7 7 9 5 6 9 4 7 4 5 11 15 7 3 6 1 3 5 3 3 2 9 2 3 12 14 22 24 22 21
19 15 13 17 21 20 8 5 12 13 12 20 6 4 2 1 1 2 7 3 1 4 3 8 5 1 5 11 5 4 2 4 12 2 4 0 7 10 10 17 19 23 26 29 25
23 19 20 21 19 18 8 11 7 8 18 6 12 4 11 8 6 3 5 4 6 2 2 8 8 1 3 3 19 5 13 2 2 2 6 3 9 5 19 28 27 32 37 35 30
25 12 20 26 22 13 7 10 8 12 9 10 10 10 7 11 7 6 8 3 7 7 3 8 3 6 3 1 3 4 4 9 6 4 4 6 5 7 17 19 26 38 38 34 32
21 9 21 31 11 2 6 11 13 15 12 5 7 6 11 16 9 9 13 3 14 12 8 4 5 5 3 4 2 2 2 3 4 6 2 3 12 8 9 12 20 26 27 28 31
14 16 20 38 8 5 1 2 8 14 14 13 8 3 4 12 7 6 7 2 15 12 10 15 3 4 4 4 2 8 10 7 7 2 12 7 8 4 9 15 22 26 23 26 28
22 4 13 30 12 19 12 9 9 11 16 11 10 12 9 5 6 12 9 10 13 7 8 6 3 6 6 5 7 8 12 14 7 8 12 18 21 17 17 21 27 29 29 35 44
32 17 22 8 13 15 27 21 14 15 8 19 3 14 15 10 7 10 9 11 8 16 6 6 9 4 3 3 3 7 14 28 24 16 18 11 20 36 17 22 33 32 36 36 36
29 17 19 14 17 27 23 21 28 12 23 14 13 26 19 15 17 23 21 17 11 20 13 6 6 4 4 2 3 15 28 34 37 37 36 35 46 60 67 45 40 33 26 30 36
65 46 27 20 16 13 14 22 31 35 23 15 39 18 21 12 12 18 15 25 31 24 15 13 15 9 6 5 6 14 21 39 25 20 38 26 28 17 16 16 23 29 26 34 40
Wind_Direction_850mb
80 75 71 72 75 72 68 65 58 52 51 34 37 126 73 61 56 54 39 7 360 4 12 28 41 81 91 79 71 98 86 92 122 118 129 100 88 70 69 73 68 73 70 55 55
79 78 77 74 77 73 64 57 47 33 52 42 49 130 163 60 45 45 28 22 19 20 19 52 61 66 60 45 43 45 61 33 90 93 89 70 82 80 67 49 54 55 55 58 60
81 79 79 76 76 74 66 62 55 49 62 74 57 50 109 234 29 12 21 20 20 27 24 86 77 70 58 53 24 37 69 96 95 101 93 82 59 58 78 49 39 35 34 45 56
85 80 77 67 79 74 59 56 52 49 53 84 62 56 62 100 51 7 15 21 19 59 59 73 67 70 69 61 60 104 59 64 88 90 82 71 83 64 61 64 63 55 53 55 57
87 81 74 69 75 62 59 78 58 49 55 63 66 67 70 64 25 14 19 29 47 113 54 76 77 77 81 96 66 70 87 73 89 88 86 86 73 69 53 56 51 67 71 61 59
86 82 79 79 82 49 85 90 67 64 59 69 67 74 62 61 16 14 26 49 68 62 68 81 92 97 83 82 60 105 93 83 80 79 77 76 54 67 41 61 65 61 64 64 62
87 76 82 105 105 72 82 102 81 63 81 71 59 57 54 37 29 20 44 53 62 71 87 91 97 107 95 100 121 106 86 67 23 55 145 326 40 53 60 73 69 64 60 58 58
102 75 86 126 119 97 114 107 66 61 55 160 57 56 67 37 40 77 74 65 82 81 86 105 101 92 84 125 149 157 101 87 30 24 28 209 80 67 67 72 69 68 63 60 56
117 92 99 122 101 84 78 222 232 74 62 55 57 67 55 32 42 59 89 76 87 91 104 103 79 74 95 138 117 34 90 77 82 34 74 81 127 119 81 75 67 62 61 59 56
150 120 124 125 105 83 64 63 66 160 150 28 43 59 30 28 34 56 75 79 103 108 81 53 52 64 35 17 83 103 103 66 69 47 88 97 117 125 88 81 74 65 62 60 53
175 165 167 178 174 2 352 342 34 58 66 66 54 73 47 53 40 48 83 86 69 64 49 34 63 47 21 30 82 100 98 99 101 107 69 105 118 119 111 96 88 71 63 59 53
207 187 205 225 250 283 317 131 122 123 79 62 59 62 46 45 51 52 70 70 51 61 55 81 54 8 19 66 81 95 104 98 85 88 104 138 128 145 157 131 125 101 74 53 46
208 200 193 192 197 162 135 109 113 109 83 33 29 30 24 46 45 23 45 69 66 62 63 79 15 349 70 58 71 53 84 131 125 110 86 151 164 184 180 169 171 168 118 53 37
230 195 169 152 162 168 158 120 103 133 85 360 357 20 4 72 53 27 39 70 54 89 61 63 11 52 76 64 355 74 10 117 124 171 138 281 156 209 191 198 211 209 204 128 34
218 207 198 191 206 173 191 174 116 135 49 10 346 11 32 76 64 25 43 61 72 43 245 62 23 34 62 14 336 104 132 114 69 83 181 64 249 121 196 222 215 215 215 206 33
189 177 194 182 174 189 168 151 126 46 245 42 320 348 23 31 38 17 56 75 99 68 61 83 29 24 24 3 51 128 124 96 94 110 234 151 295 175 188 224 212 211 216 217 241
217 211 211 203 201 179 164 139 39 135 14 227 7 31 74 16 39 26 37 35 32 130 64 113 34 19 16 111 86 190 181 219 198 222 23 116 257 292 200 210 221 205 209 215 238
224 222 212 218 189 170 159 75 126 9 209 120 135 79 84 359 35 22 93 85 59 347 114 143 145 6 350 23 43 60 184 321 303 279 349 86 235 149 196 217 231 209 207 217 235
219 221 213 188 179 173 139 84 203 189 149 154 113 143 126 112 155 101 41 109 51 17 7 137 131 105 53 34 303 135 87 100 106 126 266 283 257 219 222 219 208 203 212 226 234
210 219 220 200 187 184 101 223 168 151 130 169 169 197 174 196 177 189 176 181 159 168 154 169 119 184 115 205 47 4 130 135 75 315 282 227 265 245 209 219 208 217 224 233 237
198 220 213 205 189 187 174 187 157 173 151 166 169 143 181 176 193 189 156 173 210 130 116 147 290 143 222 183 154 175 162 68 100 333 278 302 254 184 198 199 203 219 228 235 240
191 215 205 188 149 49 170 163 147 163 175 149 122 108 163 164 149 186 201 256 169 163 155 130 112 135 96 118 316 287 252 272 209 185 65 343 272 186 193 186 211 230 239 244 250
199 213 202 181 155 185 155 56 166 154 175 167 154 135 139 164 144 177 171 170 163 169 169 183 157 130 181 171 168 222 185 137 102 75 201 197 255 188 217 226 237 240 240 246 257
187 159 180 199 192 148 151 193 193 205 153 162 133 121 120 128 38 159 154 178 189 181 137 146 129 211 245 84 99 189 196 190 171 183 176 229 271 233 217 234 230 236 251 264 274
205 216 195 172 217 185 176 152 148 180 220 173 151 221 165 132 123 173 162 149 189 176 135 185 213 186 239 237 272 244 215 193 206 199 213 281 234 262 274 249 257 262 270 268 268
202 180 191 160 170 157 170 204 174 163 159 209 218 187 183 159 187 185 151 184 180 172 169 169 177 170 266 9 264 275 234 231 227 238 252 259 270 271 275 270 258 256 261 269 268
208 212 202 163 159 157 193 184 200 153 208 189 200 141 189 196 122 104 134 139 147 154 159 163 145 159 245 4 310 272 238 202 206 221 220 219 231 243 244 245 253 265 268 278 277